This demonstration page uses our WeatherBlox Daily Observations layout. Learn more.

Left ArrowRight Arrow

Hourly Observations for April 7, 2022

Temp ( °F °C ) Dew Point ( °F °C ) Humidity (%) Winds ( mph kmh ) Pressure ( in mb ) Visibility ( mi km ) Precip ( " mm )
12:53 am 00:53 Clear 58 14.4 38 3.3 48 48 Calm 30.11 1020 10 16 0.00 0.00
1:53 am 01:53 Clear 56 13.3 38 3.3 51 51 NNW 3 6 30.10 1019 10 16 0.00 0.00
2:53 am 02:53 Clear 52 11.1 38 3.3 59 59 Calm 30.11 1020 10 16 0.00 0.00
3:53 am 03:53 Clear 52 11.1 35 1.7 53 53 Calm 30.11 1020 10 16 0.00 0.00
4:53 am 04:53 Clear 48 8.9 38 3.3 68 68 Calm 30.11 1020 10 16 0.00 0.00
5:53 am 05:53 Clear 48 8.9 37 2.8 66 66 S 3 6 30.13 1020 10 16 0.00 0.00
6:53 am 06:53 Sunny 48 8.9 37 2.8 66 66 Calm 30.15 1021 10 16 0.00 0.00
7:53 am 07:53 Sunny 55 12.8 38 3.3 53 53 Calm 30.17 1022 10 16 0.00 0.00
8:53 am 08:53 Sunny 62 16.7 36 2.2 38 38 Calm 30.18 1022 10 16 0.00 0.00
9:53 am 09:53 Sunny 70 21.1 38 3.3 31 31 Calm 30.17 1022 8 13 0.00 0.00
10:53 am 10:53 Sunny 77 25 32 0 19 19 NNE 5 7 30.16 1021 10 16 0.00 0.00
11:53 am 11:53 Sunny 81 27.2 31 -0.6 16 16 Calm 30.15 1021 10 16 0.00 0.00
12:53 pm 12:53 Sunny 85 29.4 30 -1.1 14 14 Calm 30.13 1020 10 16 0.00 0.00
1:53 pm 13:53 Sunny 87 30.6 29 -1.7 12 12 Calm 30.10 1019 10 16 0.00 0.00
2:53 pm 14:53 Sunny 88 31.1 29 -1.7 12 12 Calm 30.07 1018 10 16 0.00 0.00
3:53 pm 15:53 Sunny 88 31.1 30 -1.1 12 12 VRB 3 6 30.05 1018 10 16 0.00 0.00
4:53 pm 16:53 Sunny 90 32.2 31 -0.6 12 12 E 3 6 30.03 1017 10 16 0.00 0.00
5:53 pm 17:53 Sunny 89 31.7 32 0 13 13 SE 3 6 30.02 1017 10 16 0.00 0.00
6:53 pm 18:53 Sunny 86 30 37 2.8 18 18 SSE 5 7 30.01 1016 10 16 0.00 0.00
7:53 pm 19:53 Clear 79 26.1 40 4.4 25 25 Calm 30.00 1016 10 16 0.00 0.00
8:53 pm 20:53 Clear 75 23.9 45 7.2 34 34 Calm 30.02 1017 10 16 0.00 0.00
9:53 pm 21:53 Clear 69 20.6 45 7.2 42 42 NNE 7 11 30.04 1017 10 16 0.00 0.00
10:53 pm 22:53 Clear 63 17.2 44 6.7 50 50 Calm 30.04 1017 10 16 0.00 0.00
11:53 pm 23:53 Clear 61 16.1 46 7.8 58 58 Calm 30.05 1018 10 16 0.00 0.00

Powered by AerisWeather